Sauk Centre, MN

7:26 AM CST on December 09, 2019 (GMT -0600)
Sauk Centre

Weather History for KD39 - September, 2019

Change the Weather History Date:

Saturday, September 28, 2019

  Actual Average (WUND) Record (WUND)
Temperature  
Mean Temperature 46 °F -  
Max Temperature 55 °F - - (-1)
Min Temperature 37 °F - - (-1)
Degree Days  
Heating Degree Days 19    
Moisture  
Dew Point 38 °F    
Average Humidity 72    
Maximum Humidity 100    
Minimum Humidity 47    
Precipitation  
Precipitation 0.00 in - - ()
Sea Level Pressure  
Sea Level Pressure 30.18 in    
Wind  
Wind Speed 5 mph ()    
Max Wind Speed 12 mph    
Max Gust Speed 16 mph    
Visibility 10.0 miles    
Events      
Averages and records for this station are not official NWS values.
T = Trace of Precipitation, MM = Missing Value Source: Averaged Metar Reports

Daily Weather History Graph

Daily Weather History Graph

Search for Another Location

Airport or City:

Astronomy

Sep. 28, 2019 Rise Set
Actual Time 7:13 AM CDT 7:06 PM CDT
Civil Twilight 6:44 AM CDT 7:35 PM CDT
Nautical Twilight 6:09 AM CDT 8:10 PM CDT
Astronomical Twilight 5:34 AM CDT 8:45 PM CDT
Moon 6:47 AM CDT (9/28) 7:34 PM CDT (9/28)
Length of Visible Light 12h 51m
Length of Day
11h 52m
Waning Crescent, 0% of the Moon is Illuminated
Sep 28
Waning Crescent
Sep 28
New
Oct 5
First Quarter
Oct 13
Full
Oct 21
Last Quarter

Hourly Weather History & Observations

Time (CDT) Temp. Windchill Dew Point Humidity Pressure Visibility Wind Dir Wind Speed Gust Speed Precip Events Conditions
12:59 AM 42.8 °F 37.5 °F 39.2 °F 87% 30.02 in 10.0 mi NNW 9.2 mph - N/A   Clear
1:59 AM 42.8 °F - 39.2 °F 87% 30.05 in 10.0 mi Calm Calm - N/A   Clear
2:59 AM 41.0 °F 39.0 °F 39.2 °F 93% 30.08 in 10.0 mi North 3.5 mph - N/A   Clear
3:59 AM 37.4 °F - 37.4 °F 100% 30.09 in 10.0 mi Calm Calm - N/A   Clear
4:59 AM 37.4 °F - 37.4 °F 100% 30.12 in 10.0 mi Calm Calm - N/A   Clear
5:59 AM 37.4 °F 33.8 °F 37.4 °F 100% 30.13 in 10.0 mi North 4.6 mph - N/A   Clear
6:59 AM 37.4 °F - 35.6 °F 93% 30.17 in 10.0 mi Calm Calm - N/A   Clear
7:59 AM 37.4 °F - 37.4 °F 100% 30.19 in 10.0 mi Calm Calm - N/A   Clear
8:59 AM 44.6 °F 43.1 °F 39.2 °F 81% 30.22 in 10.0 mi NNE 3.5 mph - N/A   Clear
9:59 AM 50.0 °F - 41.0 °F 71% 30.25 in 10.0 mi NNE 4.6 mph - N/A   Clear
10:59 AM 53.6 °F - 39.2 °F 58% 30.25 in 10.0 mi ENE 5.8 mph - N/A   Clear
11:59 AM 55.4 °F - 35.6 °F 47% 30.24 in 10.0 mi NE 6.9 mph - N/A   Clear
12:59 PM 55.4 °F - 35.6 °F 47% 30.24 in 10.0 mi ENE 11.5 mph - N/A   Clear
2:59 PM 55.4 °F - 37.4 °F 51% 30.23 in 10.0 mi NE 10.4 mph - N/A   Clear
3:59 PM 55.4 °F - 39.2 °F 54% 30.22 in 10.0 mi NE 11.5 mph - N/A   Clear
4:59 PM 53.6 °F - 37.4 °F 54% 30.22 in 10.0 mi NE 5.8 mph - N/A   Clear
5:59 PM 53.6 °F - 37.4 °F 54% 30.22 in 10.0 mi ENE 9.2 mph - N/A   Clear
6:59 PM 51.8 °F - 37.4 °F 58% 30.22 in 10.0 mi ENE 8.1 mph - N/A   Clear
7:59 PM 51.8 °F - 37.4 °F 58% 30.22 in 10.0 mi East 9.2 mph - N/A   Overcast
8:59 PM 51.8 °F - 39.2 °F 62% 30.21 in 10.0 mi East 11.5 mph - N/A   Overcast
9:59 PM 51.8 °F - 37.4 °F 58% 30.20 in 10.0 mi East 11.5 mph 16.1 mph N/A   Overcast
10:59 PM 50.0 °F - 39.2 °F 66% 30.21 in 10.0 mi East 10.4 mph 16.1 mph N/A   Light Drizzle
11:59 PM 50.0 °F - 39.2 °F 66% 30.22 in 10.0 mi East 10.4 mph - N/A   Overcast